IRIDE-MS2-HEO-2 (64569 NORAD) Tracking and Keplerian Element Data

This shows tracking and keplerian element data for the satellite.

Feedback or suggestion? Click here.




ElementValue
Catalog64569
NameIRIDE-MS2-HEO-2
Epoch Orbit2718
Epoch Day354.27773896
Epoch Year2025
RAAN105.8115
Inclination97.7622
Eccentricity0.0001168
Argument of Perigee176.353
Mean Anonmoly183.7698
Mean Motion14.92674432
Decay Rate1.932E-05
L11 64569U 25135AT 25354.27773896 .00001932 00000+0 19285-3 0 9996
L22 64569 97.7622 105.8115 0001168 176.3530 183.7698 14.92674432 27189



Live tracking and technical data element details for IRIDE-MS2-HEO-2 (NORAD 64569). IRIDE-MS2-HEO-2 can be tracked NOW for your location showing map with azimuth and elevation plus other details from your city location.







IsCatalogInMostPopularTable: catalog: 64569, numindb: 10
Update: records affected: 1



GetName: 64569 IRIDE-MS2-HEO-2

Hit Count: updated at: Sat, 11 Apr 2026 21:49:13 GMT